| time (UTC) | temp F | wind direction | speed knots | gust knots | rain 1hr in | rain 24hr in | rain mn in | humidity % | barometer mb |
| 20260906123018 | 76 | 207 | 0.0 | 0.0 | 0.00 | 0.00 | 0.00 | 93 | 1014.5 |
| 20260906122506 | 76 | 207 | 0.0 | 0.0 | 0.00 | 0.00 | 0.00 | 92 | 1014.4 |
| 20260906122006 | 76 | 207 | 0.0 | 0.0 | 0.00 | 0.00 | 0.00 | 92 | 1014.4 |
| 20260906121525 | 76 | 207 | 0.0 | 0.0 | 0.00 | 0.00 | 0.00 | 92 | 1014.5 |
| 20260906121011 | 76 | 207 | 0.0 | 0.0 | 0.00 | 0.00 | 0.00 | 92 | 1014.4 |
| 20260906120512 | 76 | 207 | 0.0 | 0.0 | 0.00 | 0.00 | 0.00 | 92 | 1014.4 |
| 20260906120025 | 76 | 207 | 0.0 | 0.0 | 0.00 | 0.00 | 0.00 | 92 | 1014.3 |
| 20260906115513 | 77 | 207 | 0.0 | 0.0 | 0.00 | 0.00 | 0.00 | 92 | 1014.3 |
| 20260906115015 | 77 | 207 | 0.0 | 0.9 | 0.00 | 0.00 | 0.00 | 92 | 1014.3 |
| 20260906114541 | 77 | 207 | 0.0 | 0.9 | 0.00 | 0.00 | 0.00 | 91 | 1014.2 |
| 20260906114011 | 77 | 207 | 0.0 | 0.9 | 0.00 | 0.00 | 0.00 | 91 | 1014.3 |
| 20260906113502 | 77 | 207 | 0.0 | 0.0 | 0.00 | 0.00 | 0.00 | 91 | 1014.3 |
| 20260906113012 | 77 | 207 | 0.0 | 0.0 | 0.00 | 0.00 | 0.00 | 91 | 1014.2 |
| 20260906112506 | 77 | 207 | 0.0 | 0.0 | 0.00 | 0.00 | 0.00 | 91 | 1014.2 |
| 20260906112006 | 77 | 207 | 0.0 | 0.0 | 0.00 | 0.00 | 0.00 | 91 | 1014.1 |
| 20260906111523 | 77 | 207 | 0.0 | 0.0 | 0.00 | 0.00 | 0.00 | 90 | 1014.1 |
| 20260906111008 | 77 | 207 | 0.0 | 0.0 | 0.00 | 0.00 | 0.00 | 90 | 1014.1 |
| 20260906110510 | 78 | 207 | 0.0 | 0.0 | 0.00 | 0.00 | 0.00 | 90 | 1014.0 |
| 20260906110020 | 78 | 207 | 0.0 | 0.0 | 0.00 | 0.00 | 0.00 | 90 | 1014.0 |
| 20260906105511 | 78 | 207 | 0.0 | 0.0 | 0.00 | 0.00 | 0.00 | 90 | 1014.0 |
| 20260906105013 | 78 | 207 | 0.0 | 0.0 | 0.00 | 0.00 | 0.00 | 90 | 1013.9 |
| 20260906104525 | 78 | 207 | 0.0 | 0.0 | 0.00 | 0.00 | 0.00 | 89 | 1013.9 |
| 20260906104013 | 78 | 207 | 0.0 | 0.0 | 0.00 | 0.00 | 0.00 | 90 | 1014.0 |
| 20260906103514 | 78 | 207 | 0.0 | 0.0 | 0.00 | 0.00 | 0.00 | 90 | 1013.9 |
| 20260906103029 | 78 | 207 | 0.0 | 0.0 | 0.00 | 0.00 | 0.00 | 89 | 1013.9 |
| 20260906102514 | 78 | 207 | 0.0 | 0.0 | 0.00 | 0.00 | 0.00 | 89 | 1013.8 |
| 20260906102006 | 78 | 207 | 0.0 | 0.0 | 0.00 | 0.00 | 0.00 | 89 | 1013.8 |
| 20260906101512 | 78 | 207 | 0.0 | 0.0 | 0.00 | 0.00 | 0.00 | 88 | 1013.6 |
| 20260906101010 | 78 | 207 | 0.0 | 0.0 | 0.00 | 0.00 | 0.00 | 88 | 1013.6 |
| 20260906100511 | 78 | 207 | 0.0 | 0.0 | 0.00 | 0.00 | 0.00 | 88 | 1013.7 |
| 20260906100018 | 79 | 207 | 0.0 | 0.0 | 0.00 | 0.00 | 0.00 | 88 | 1013.6 |
| 20260906095510 | 79 | 207 | 0.0 | 0.0 | 0.00 | 0.00 | 0.00 | 88 | 1013.6 |
| 20260906095011 | 79 | 207 | 0.0 | 0.0 | 0.00 | 0.00 | 0.00 | 88 | 1013.5 |
| 20260906094524 | 79 | 207 | 0.0 | 0.9 | 0.00 | 0.00 | 0.00 | 88 | 1013.4 |
| 20260906094010 | 79 | 207 | 0.0 | 1.7 | 0.00 | 0.00 | 0.00 | 88 | 1013.3 |
| 20260906093512 | 79 | 207 | 0.0 | 1.7 | 0.00 | 0.00 | 0.00 | 88 | 1013.3 |
| 20260906093028 | 79 | 207 | 0.0 | 1.7 | 0.00 | 0.00 | 0.00 | 88 | 1013.2 |
| 20260906092515 | 79 | 207 | 0.0 | 2.6 | 0.00 | 0.00 | 0.00 | 88 | 1013.1 |
| 20260906092016 | 79 | 207 | 0.0 | 2.6 | 0.00 | 0.00 | 0.00 | 88 | 1013.1 |
| 20260906091534 | 79 | 207 | 0.0 | 0.0 | 0.00 | 0.00 | 0.00 | 88 | 1013.1 |
| 20260906091016 | 79 | 207 | 0.0 | 0.0 | 0.00 | 0.00 | 0.00 | 87 | 1013.1 |
| 20260906090505 | 79 | 207 | 0.0 | 0.0 | 0.00 | 0.00 | 0.00 | 87 | 1013.2 |
| 20260906090017 | 79 | 207 | 0.0 | 0.0 | 0.00 | 0.00 | 0.00 | 87 | 1013.2 |
| 20260906085508 | 79 | 207 | 0.0 | 0.0 | 0.00 | 0.00 | 0.00 | 87 | 1013.1 |
| 20260906085008 | 79 | 207 | 0.0 | 1.7 | 0.00 | 0.00 | 0.00 | 87 | 1013.0 |
| 20260906084524 | 79 | 207 | 0.0 | 2.6 | 0.00 | 0.00 | 0.00 | 87 | 1012.9 |
| 20260906084011 | 79 | 207 | 0.0 | 2.6 | 0.00 | 0.00 | 0.00 | 87 | 1012.9 |
| 20260906083511 | 79 | 207 | 0.0 | 0.9 | 0.00 | 0.00 | 0.00 | 86 | 1012.9 |
| 20260906083029 | 79 | 207 | 0.0 | 1.7 | 0.00 | 0.00 | 0.00 | 86 | 1013.0 |
| 20260906082514 | 80 | 207 | 0.0 | 1.7 | 0.00 | 0.00 | 0.00 | 86 | 1013.0 |
| 20260906082016 | 80 | 207 | 0.0 | 0.9 | 0.00 | 0.00 | 0.00 | 86 | 1013.1 |
| 20260906081537 | 80 | 207 | 0.0 | 0.9 | 0.00 | 0.00 | 0.00 | 86 | 1013.1 |
| 20260906081014 | 80 | 207 | 0.0 | 0.0 | 0.00 | 0.00 | 0.00 | 86 | 1013.2 |
| 20260906080519 | 80 | 207 | 0.0 | 0.0 | 0.00 | 0.00 | 0.00 | 85 | 1013.2 |
| 20260906080033 | 80 | 207 | 0.0 | 0.0 | 0.00 | 0.00 | 0.00 | 85 | 1013.3 |
| 20260906075519 | 80 | 207 | 0.0 | 0.0 | 0.00 | 0.00 | 0.00 | 85 | 1013.3 |
| 20260906075009 | 80 | 207 | 0.0 | 0.0 | 0.00 | 0.00 | 0.00 | 85 | 1013.2 |
| 20260906074517 | 80 | 207 | 0.0 | 0.9 | 0.00 | 0.00 | 0.00 | 85 | 1013.3 |
| 20260906074019 | 80 | 207 | 0.0 | 0.9 | 0.00 | 0.00 | 0.00 | 84 | 1013.4 |
| 20260906073512 | 80 | 207 | 0.0 | 0.9 | 0.00 | 0.00 | 0.00 | 84 | 1013.3 |
| 20260906073024 | 80 | 205 | 0.0 | 0.9 | 0.00 | 0.00 | 0.00 | 84 | 1013.3 |
| 20260906072503 | 81 | 205 | 0.0 | 0.9 | 0.00 | 0.00 | 0.00 | 84 | 1013.3 |
| 20260906072002 | 81 | 205 | 0.0 | 0.9 | 0.00 | 0.00 | 0.00 | 83 | 1013.3 |
| 20260906071504 | 81 | 205 | 0.0 | 0.0 | 0.00 | 0.00 | 0.00 | 83 | 1013.3 |
| 20260906071004 | 81 | 205 | 0.0 | 0.0 | 0.00 | 0.00 | 0.00 | 83 | 1013.3 |
| 20260906070504 | 81 | 205 | 0.0 | 0.0 | 0.00 | 0.00 | 0.00 | 82 | 1013.3 |
| 20260906070008 | 81 | 205 | 0.0 | 0.9 | 0.00 | 0.00 | 0.00 | 82 | 1013.3 |
| 20260906065505 | 81 | 205 | 0.0 | 0.9 | 0.00 | 0.00 | 0.00 | 82 | 1013.2 |
| 20260906065006 | 81 | 205 | 0.0 | 0.9 | 0.00 | 0.00 | 0.00 | 82 | 1013.3 |
| 20260906064523 | 81 | 205 | 0.0 | 0.9 | 0.00 | 0.00 | 0.00 | 81 | 1013.3 |
| 20260906064008 | 81 | 205 | 0.0 | 2.6 | 0.00 | 0.00 | 0.00 | 81 | 1013.2 |
| 20260906063509 | 82 | 206 | 0.0 | 2.6 | 0.00 | 0.00 | 0.00 | 81 | 1013.2 |
| 20260906063020 | 82 | 205 | 0.0 | 2.6 | 0.00 | 0.00 | 0.00 | 80 | 1013.2 |
| 20260906062509 | 82 | 201 | 0.0 | 2.6 | 0.00 | 0.00 | 0.00 | 80 | 1013.4 |
| 20260906062003 | 82 | 196 | 0.0 | 3.5 | 0.00 | 0.00 | 0.00 | 80 | 1013.3 |
| 20260906061504 | 82 | 174 | 0.0 | 3.5 | 0.00 | 0.00 | 0.00 | 79 | 1013.4 |
| 20260906061002 | 82 | 198 | 0.0 | 2.6 | 0.00 | 0.00 | 0.00 | 79 | 1013.6 |
| 20260906060504 | 82 | 199 | 0.0 | 2.6 | 0.00 | 0.00 | 0.00 | 79 | 1013.6 |
| 20260906060010 | 82 | 200 | 0.0 | 2.6 | 0.00 | 0.00 | 0.00 | 78 | 1013.6 |
| 20260906055503 | 82 | 201 | 0.0 | 2.6 | 0.00 | 0.00 | 0.00 | 78 | 1013.7 |
| 20260906055006 | 82 | 200 | 0.0 | 2.6 | 0.00 | 0.00 | 0.00 | 78 | 1013.7 |
| 20260906054512 | 83 | 197 | 0.0 | 3.5 | 0.00 | 0.00 | 0.00 | 77 | 1013.7 |
| 20260906054003 | 83 | 190 | 0.0 | 5.2 | 0.00 | 0.00 | 0.00 | 77 | 1013.7 |
| 20260906053508 | 83 | 185 | 0.0 | 5.2 | 0.00 | 0.00 | 0.00 | 77 | 1013.7 |
| 20260906053017 | 83 | 200 | 0.0 | 3.5 | 0.00 | 0.00 | 0.00 | 76 | 1013.6 |
| 20260906052506 | 83 | 200 | 0.0 | 3.5 | 0.00 | 0.00 | 0.00 | 76 | 1013.7 |
| 20260906052010 | 83 | 217 | 0.0 | 1.7 | 0.00 | 0.00 | 0.00 | 76 | 1013.5 |
| 20260906051522 | 83 | 218 | 0.0 | 2.6 | 0.00 | 0.00 | 0.00 | 76 | 1013.5 |
| 20260906051012 | 83 | 238 | 0.0 | 2.6 | 0.00 | 0.00 | 0.00 | 76 | 1013.5 |
| 20260906050502 | 83 | 157 | 0.0 | 3.5 | 0.00 | 0.00 | 0.00 | 76 | 1013.5 |
| 20260906050012 | 83 | 192 | 0.0 | 3.5 | 0.00 | 0.00 | 0.00 | 76 | 1013.6 |
| 20260906045507 | 83 | 234 | 0.0 | 0.9 | 0.00 | 0.00 | 0.00 | 76 | 1013.4 |
| 20260906045005 | 83 | 236 | 0.0 | 0.9 | 0.00 | 0.00 | 0.00 | 76 | 1013.3 |
| 20260906044507 | 84 | 236 | 0.0 | 1.7 | 0.00 | 0.00 | 0.00 | 76 | 1013.2 |
| 20260906044007 | 84 | 236 | 0.0 | 1.7 | 0.00 | 0.00 | 0.00 | 76 | 1013.2 |
| 20260906043509 | 84 | 219 | 0.0 | 0.9 | 0.00 | 0.00 | 0.00 | 75 | 1013.3 |
| 20260906043015 | 84 | 217 | 0.0 | 0.9 | 0.00 | 0.00 | 0.00 | 76 | 1013.3 |
| 20260906042503 | 84 | 217 | 0.0 | 0.9 | 0.00 | 0.00 | 0.00 | 75 | 1013.5 |
| 20260906042008 | 84 | 217 | 0.0 | 1.7 | 0.00 | 0.00 | 0.00 | 75 | 1013.5 |
| 20260906041526 | 84 | 217 | 0.0 | 1.7 | 0.00 | 0.00 | 0.00 | 75 | 1013.5 |
| 20260906041007 | 84 | 217 | 0.0 | 1.7 | 0.00 | 0.00 | 0.00 | 75 | 1013.7 |
| 20260906040511 | 84 | 220 | 0.0 | 1.7 | 0.00 | 0.00 | 0.00 | 74 | 1013.7 |
| 20260906040034 | 85 | 221 | 0.0 | 1.7 | 0.00 | 0.00 | 0.00 | 75 | 1013.7 |
| 20260906035515 | 85 | 222 | 0.0 | 2.6 | 0.00 | 0.00 | 0.00 | 74 | 1013.6 |
| 20260906035002 | 85 | 225 | 0.0 | 2.6 | 0.00 | 0.00 | 0.00 | 74 | 1013.6 |
| 20260906034504 | 85 | 232 | 0.0 | 2.6 | 0.00 | 0.00 | 0.00 | 74 | 1013.5 |
| 20260906034003 | 85 | 207 | 0.0 | 2.6 | 0.00 | 0.00 | 0.00 | 74 | 1013.5 |
| 20260906033503 | 85 | 183 | 0.0 | 2.6 | 0.00 | 0.00 | 0.00 | 74 | 1013.5 |
| 20260906033009 | 85 | 209 | 0.0 | 2.6 | 0.00 | 0.00 | 0.00 | 73 | 1013.4 |
| 20260906032503 | 85 | 211 | 0.0 | 0.9 | 0.00 | 0.00 | 0.00 | 73 | 1013.5 |
| 20260906032004 | 85 | 211 | 0.0 | 0.9 | 0.00 | 0.00 | 0.00 | 73 | 1013.5 |
| 20260906031528 | 85 | 211 | 0.0 | 3.5 | 0.00 | 0.00 | 0.00 | 73 | 1013.5 |
| 20260906031008 | 85 | 211 | 0.0 | 3.5 | 0.00 | 0.00 | 0.00 | 72 | 1013.4 |
| 20260906030511 | 86 | 211 | 0.0 | 1.7 | 0.00 | 0.00 | 0.00 | 72 | 1013.4 |
| 20260906030020 | 86 | 217 | 0.0 | 2.6 | 0.00 | 0.00 | 0.00 | 72 | 1013.4 |
| 20260906025514 | 86 | 217 | 0.0 | 2.6 | 0.00 | 0.00 | 0.00 | 72 | 1013.3 |
| 20260906025014 | 86 | 194 | 0.0 | 2.6 | 0.00 | 0.00 | 0.00 | 72 | 1013.4 |
| 20260906024528 | 86 | 200 | 0.0 | 3.5 | 0.00 | 0.00 | 0.00 | 71 | 1013.4 |
| 20260906024014 | 86 | 192 | 0.0 | 5.2 | 0.00 | 0.00 | 0.00 | 71 | 1013.3 |
| 20260906023503 | 86 | 188 | 0.0 | 5.2 | 0.00 | 0.00 | 0.00 | 71 | 1013.2 |
| 20260906023008 | 86 | 201 | 0.0 | 3.5 | 0.00 | 0.00 | 0.00 | 70 | 1013.1 |
| 20260906022505 | 86 | 193 | 0.0 | 3.5 | 0.00 | 0.00 | 0.00 | 70 | 1013.1 |
| 20260906022004 | 87 | 166 | 0.0 | 5.2 | 0.00 | 0.00 | 0.00 | 70 | 1013.1 |
| 20260906021511 | 87 | 165 | 0.0 | 6.1 | 0.00 | 0.00 | 0.00 | 70 | 1012.9 |
| 20260906021003 | 87 | 202 | 0.9 | 6.1 | 0.00 | 0.00 | 0.00 | 69 | 1012.9 |
| 20260906020506 | 87 | 190 | 0.0 | 3.5 | 0.00 | 0.00 | 0.00 | 69 | 1012.9 |
| 20260906020018 | 87 | 196 | 0.0 | 2.6 | 0.00 | 0.00 | 0.00 | 68 | 1012.8 |
| 20260906015507 | 87 | 190 | 0.0 | 6.1 | 0.00 | 0.00 | 0.00 | 68 | 1012.7 |
| 20260906015011 | 87 | 206 | 0.9 | 7.0 | 0.00 | 0.00 | 0.00 | 68 | 1012.7 |
| 20260906014525 | 88 | 169 | 0.0 | 7.0 | 0.00 | 0.00 | 0.00 | 67 | 1012.7 |
| 20260906014014 | 88 | 155 | 0.9 | 5.2 | 0.00 | 0.00 | 0.00 | 67 | 1012.6 |
| 20260906013510 | 88 | 199 | 0.0 | 10.4 | 0.00 | 0.00 | 0.00 | 66 | 1012.5 |
| 20260906013026 | 88 | 180 | 0.0 | 10.4 | 0.00 | 0.00 | 0.00 | 66 | 1012.4 |
| 20260906012503 | 88 | 167 | 3.5 | 10.4 | 0.00 | 0.00 | 0.00 | 66 | 1012.3 |
| 20260906012002 | 88 | 171 | 1.7 | 9.6 | 0.00 | 0.00 | 0.00 | 65 | 1012.2 |
| 20260906011510 | 89 | 182 | 3.5 | 8.7 | 0.00 | 0.00 | 0.00 | 64 | 1012.1 |
| 20260906011003 | 89 | 167 | 1.7 | 8.7 | 0.00 | 0.00 | 0.00 | 64 | 1012.0 |
| 20260906010503 | 89 | 180 | 1.7 | 7.8 | 0.00 | 0.00 | 0.00 | 63 | 1012.0 |
| 20260906010013 | 90 | 144 | 1.7 | 10.4 | 0.00 | 0.00 | 0.00 | 62 | 1011.9 |
| 20260906005509 | 90 | 169 | 4.3 | 12.2 | 0.00 | 0.00 | 0.00 | 61 | 1011.9 |
| 20260906005008 | 91 | 138 | 4.3 | 12.2 | 0.00 | 0.00 | 0.00 | 60 | 1011.8 |
| 20260906004519 | 92 | 171 | 2.6 | 10.4 | 0.00 | 0.00 | 0.00 | 59 | 1011.9 |
| 20260906004009 | 93 | 167 | 4.3 | 13.0 | 0.00 | 0.00 | 0.00 | 58 | 1011.8 |
| 20260906003512 | 93 | 216 | 5.2 | 13.0 | 0.00 | 0.00 | 0.00 | 55 | 1011.8 |
| 20260906003024 | 94 | 130 | 1.7 | 12.2 | 0.00 | 0.00 | 0.00 | 55 | 1011.8 |
| 20260906002511 | 95 | 147 | 3.5 | 12.2 | 0.00 | 0.00 | 0.00 | 53 | 1011.8 |
| 20260906002011 | 95 | 150 | 4.3 | 10.4 | 0.00 | 0.00 | 0.00 | 54 | 1011.7 |
| 20260906001538 | 96 | 158 | 3.5 | 8.7 | 0.00 | 0.00 | 0.00 | 53 | 1011.7 |
| 20260906001005 | 97 | 192 | 2.6 | 12.2 | 0.00 | 0.00 | 0.00 | 52 | 1011.6 |
| 20260906000503 | 97 | 152 | 4.3 | 12.2 | 0.00 | 0.00 | 0.00 | 50 | 1011.5 |
| 20260906000013 | 98 | 108 | 5.2 | 11.3 | 0.00 | 0.00 | 0.00 | 49 | 1011.5 |
| 20260905235506 | 99 | 166 | 1.7 | 5.2 | 0.00 | 0.00 | 0.00 | 47 | 1011.4 |
| 20260905235009 | 99 | 165 | 0.0 | 4.3 | 0.00 | 0.00 | 0.00 | 45 | 1011.4 |
| 20260905234514 | 100 | 163 | 0.9 | 4.3 | 0.00 | 0.00 | 0.00 | 45 | 1011.2 |
| 20260905234007 | 100 | 178 | 0.0 | 3.5 | 0.00 | 0.00 | 0.00 | 44 | 1011.2 |
| 20260905233510 | 100 | 178 | 0.0 | 4.3 | 0.00 | 0.00 | 0.00 | 43 | 1011.1 |
| 20260905233021 | 101 | 193 | 0.9 | 4.3 | 0.00 | 0.00 | 0.00 | 44 | 1011.1 |
| 20260905232509 | 101 | 208 | 0.0 | 2.6 | 0.00 | 0.00 | 0.00 | 43 | 1011.1 |
| 20260905232013 | 101 | 208 | 0.0 | 2.6 | 0.00 | 0.00 | 0.00 | 43 | 1011.1 |
| 20260905231534 | 101 | 211 | 0.0 | 2.6 | 0.00 | 0.00 | 0.00 | 42 | 1011.2 |
| 20260905231016 | 101 | 215 | 0.0 | 3.5 | 0.00 | 0.00 | 0.00 | 43 | 1011.2 |
| 20260905230512 | 101 | 216 | 0.0 | 3.5 | 0.00 | 0.00 | 0.00 | 44 | 1011.2 |
| 20260905230027 | 101 | 196 | 0.9 | 2.6 | 0.00 | 0.00 | 0.00 | 43 | 1011.2 |
| 20260905225502 | 101 | 190 | 0.0 | 2.6 | 0.00 | 0.00 | 0.00 | 43 | 1011.2 |
| 20260905225004 | 101 | 209 | 0.0 | 2.6 | 0.00 | 0.00 | 0.00 | 43 | 1011.2 |
| 20260905224513 | 101 | 209 | 0.0 | 2.6 | 0.00 | 0.00 | 0.00 | 43 | 1011.2 |
| 20260905224010 | 100 | 203 | 0.0 | 2.6 | 0.00 | 0.00 | 0.00 | 44 | 1011.2 |
| 20260905223508 | 100 | 205 | 0.0 | 4.3 | 0.00 | 0.00 | 0.00 | 45 | 1011.1 |
| 20260905223018 | 100 | 208 | 0.9 | 4.3 | 0.00 | 0.00 | 0.00 | 45 | 1011.1 |
| 20260905222508 | 99 | 157 | 0.0 | 3.5 | 0.00 | 0.00 | 0.00 | 46 | 1011.1 |
| 20260905222009 | 99 | 143 | 0.0 | 4.3 | 0.00 | 0.00 | 0.00 | 45 | 1011.2 |
| 20260905221523 | 99 | 142 | 1.7 | 4.3 | 0.00 | 0.00 | 0.00 | 45 | 1011.1 |
| 20260905221011 | 100 | 153 | 0.9 | 2.6 | 0.00 | 0.00 | 0.00 | 45 | 1011.2 |
| 20260905220515 | 100 | 153 | 0.0 | 4.3 | 0.00 | 0.00 | 0.00 | 45 | 1011.2 |
| 20260905220031 | 100 | 153 | 0.0 | 5.2 | 0.00 | 0.00 | 0.00 | 44 | 1011.3 |
| 20260905215512 | 100 | 164 | 0.9 | 5.2 | 0.00 | 0.00 | 0.00 | 45 | 1011.4 |
| 20260905215013 | 100 | 163 | 0.0 | 5.2 | 0.00 | 0.00 | 0.00 | 46 | 1011.4 |
| 20260905214529 | 100 | 163 | 0.9 | 7.0 | 0.00 | 0.00 | 0.00 | 46 | 1011.5 |
| 20260905214013 | 99 | 190 | 0.9 | 7.8 | 0.00 | 0.00 | 0.00 | 47 | 1011.4 |
| 20260905213506 | 99 | 163 | 1.7 | 7.8 | 0.00 | 0.00 | 0.00 | 47 | 1011.5 |
| 20260905213015 | 99 | 177 | 0.9 | 7.8 | 0.00 | 0.00 | 0.00 | 47 | 1011.6 |
| 20260905212508 | 99 | 135 | 2.6 | 7.8 | 0.00 | 0.00 | 0.00 | 46 | 1011.6 |
| 20260905212007 | 99 | 136 | 0.0 | 6.1 | 0.00 | 0.00 | 0.00 | 47 | 1011.6 |
| 20260905211520 | 99 | 116 | 0.9 | 10.4 | 0.00 | 0.00 | 0.00 | 46 | 1011.7 |
| 20260905211010 | 99 | 120 | 3.5 | 10.4 | 0.00 | 0.00 | 0.00 | 46 | 1011.7 |
| 20260905210510 | 100 | 144 | 0.9 | 7.0 | 0.00 | 0.00 | 0.00 | 45 | 1011.8 |
| 20260905210026 | 101 | 132 | 3.5 | 7.8 | 0.00 | 0.00 | 0.00 | 44 | 1011.8 |
| 20260905205512 | 101 | 164 | 1.7 | 7.8 | 0.00 | 0.00 | 0.00 | 44 | 1011.9 |
| 20260905205012 | 100 | 221 | 0.0 | 5.2 | 0.00 | 0.00 | 0.00 | 45 | 1012.0 |
| 20260905204526 | 99 | 155 | 0.0 | 6.1 | 0.00 | 0.00 | 0.00 | 46 | 1012.1 |
| 20260905204013 | 99 | 122 | 1.7 | 7.0 | 0.00 | 0.00 | 0.00 | 46 | 1012.2 |
| 20260905203515 | 99 | 121 | 1.7 | 7.0 | 0.00 | 0.00 | 0.00 | 46 | 1012.2 |
| 20260905203032 | 100 | 104 | 0.9 | 7.0 | 0.00 | 0.00 | 0.00 | 47 | 1012.3 |
| 20260905202508 | 99 | 183 | 0.0 | 8.7 | 0.00 | 0.00 | 0.00 | 47 | 1012.3 |
| 20260905202004 | 99 | 130 | 1.7 | 8.7 | 0.00 | 0.00 | 0.00 | 47 | 1012.5 |
| 20260905201516 | 99 | 145 | 0.9 | 8.7 | 0.00 | 0.00 | 0.00 | 48 | 1012.5 |
| 20260905201007 | 98 | 105 | 2.6 | 7.0 | 0.00 | 0.00 | 0.00 | 48 | 1012.6 |
| 20260905200508 | 98 | 123 | 0.9 | 9.6 | 0.00 | 0.00 | 0.00 | 49 | 1012.7 |
| 20260905200023 | 98 | 113 | 5.2 | 9.6 | 0.00 | 0.00 | 0.00 | 48 | 1012.8 |
| 20260905195509 | 98 | 121 | 1.7 | 6.1 | 0.00 | 0.00 | 0.00 | 48 | 1012.8 |
| 20260905195011 | 100 | 93 | 2.6 | 6.1 | 0.00 | 0.00 | 0.00 | 46 | 1012.9 |
| 20260905194525 | 101 | 182 | 0.9 | 5.2 | 0.00 | 0.00 | 0.00 | 46 | 1013.1 |
| 20260905194011 | 100 | 182 | 0.0 | 5.2 | 0.00 | 0.00 | 0.00 | 48 | 1013.1 |
| 20260905193503 | 100 | 190 | 0.0 | 4.3 | 0.00 | 0.00 | 0.00 | 48 | 1013.2 |
| 20260905193004 | 100 | 190 | 0.0 | 4.3 | 0.00 | 0.00 | 0.00 | 47 | 1013.3 |
| 20260905192508 | 100 | 228 | 0.0 | 4.3 | 0.00 | 0.00 | 0.00 | 47 | 1013.4 |
| 20260905192006 | 100 | 194 | 0.0 | 4.3 | 0.00 | 0.00 | 0.00 | 47 | 1013.5 |
| 20260905191510 | 99 | 195 | 0.0 | 4.3 | 0.00 | 0.00 | 0.00 | 48 | 1013.5 |
| 20260905191004 | 99 | 217 | 0.9 | 4.3 | 0.00 | 0.00 | 0.00 | 48 | 1013.6 |
| 20260905190508 | 98 | 206 | 0.0 | 4.3 | 0.00 | 0.00 | 0.00 | 49 | 1013.7 |
| 20260905190027 | 98 | 248 | 0.0 | 7.0 | 0.00 | 0.00 | 0.00 | 49 | 1013.7 |
| 20260905185507 | 98 | 205 | 0.0 | 7.0 | 0.00 | 0.00 | 0.00 | 49 | 1013.8 |
| 20260905185013 | 98 | 161 | 1.7 | 5.2 | 0.00 | 0.00 | 0.00 | 50 | 1013.9 |
| 20260905184525 | 97 | 170 | 0.0 | 5.2 | 0.00 | 0.00 | 0.00 | 52 | 1014.0 |
| 20260905184012 | 97 | 187 | 0.9 | 7.8 | 0.00 | 0.00 | 0.00 | 50 | 1014.1 |
| 20260905183509 | 97 | 132 | 2.6 | 7.8 | 0.00 | 0.00 | 0.00 | 50 | 1014.2 |
| 20260905183025 | 97 | 134 | 1.7 | 7.8 | 0.00 | 0.00 | 0.00 | 50 | 1014.4 |
| 20260905182512 | 97 | 166 | 0.9 | 7.8 | 0.00 | 0.00 | 0.00 | 50 | 1014.4 |
| 20260905182004 | 97 | 117 | 3.5 | 7.8 | 0.00 | 0.00 | 0.00 | 51 | 1014.5 |
| 20260905181510 | 97 | 157 | 0.0 | 4.3 | 0.00 | 0.00 | 0.00 | 50 | 1014.6 |
| 20260905181009 | 98 | 198 | 0.0 | 4.3 | 0.00 | 0.00 | 0.00 | 49 | 1014.6 |
| 20260905180504 | 98 | 198 | 0.0 | 4.3 | 0.00 | 0.00 | 0.00 | 49 | 1014.7 |
| 20260905180012 | 98 | 226 | 0.0 | 6.1 | 0.00 | 0.00 | 0.00 | 50 | 1014.9 |
| 20260905175507 | 97 | 231 | 0.0 | 6.1 | 0.00 | 0.00 | 0.00 | 49 | 1014.9 |
| 20260905175008 | 97 | 229 | 0.0 | 5.2 | 0.00 | 0.00 | 0.00 | 49 | 1015.0 |
| 20260905174521 | 97 | 185 | 0.0 | 5.2 | 0.00 | 0.00 | 0.00 | 51 | 1015.0 |
| 20260905174010 | 96 | 245 | 0.0 | 5.2 | 0.00 | 0.00 | 0.00 | 51 | 1015.1 |
| 20260905173510 | 96 | 164 | 0.9 | 9.6 | 0.00 | 0.00 | 0.00 | 49 | 1015.2 |
| 20260905173026 | 96 | 234 | 0.9 | 9.6 | 0.00 | 0.00 | 0.00 | 51 | 1015.2 |
| 20260905172514 | 96 | 140 | 0.0 | 7.8 | 0.00 | 0.00 | 0.00 | 50 | 1015.2 |
| 20260905172014 | 95 | 159 | 1.7 | 7.8 | 0.00 | 0.00 | 0.00 | 50 | 1015.3 |
| 20260905171540 | 94 | 164 | 0.0 | 7.0 | 0.00 | 0.00 | 0.00 | 53 | 1015.3 |
| 20260905171013 | 94 | 98 | 0.9 | 7.0 | 0.00 | 0.00 | 0.00 | 53 | 1015.3 |
| 20260905170504 | 94 | 117 | 2.6 | 7.8 | 0.00 | 0.00 | 0.00 | 54 | 1015.4 |
| 20260905170012 | 95 | 126 | 3.5 | 7.8 | 0.00 | 0.00 | 0.00 | 53 | 1015.5 |
| 20260905165505 | 96 | 128 | 2.6 | 7.8 | 0.00 | 0.00 | 0.00 | 52 | 1015.5 |
| 20260905165007 | 96 | 180 | 0.0 | 6.1 | 0.00 | 0.00 | 0.00 | 54 | 1015.4 |
| 20260905164517 | 96 | 144 | 1.7 | 6.1 | 0.00 | 0.00 | 0.00 | 54 | 1015.5 |
| 20260905164008 | 96 | 161 | 1.7 | 7.0 | 0.00 | 0.00 | 0.00 | 55 | 1015.5 |
| 20260905163510 | 95 | 163 | 0.0 | 7.0 | 0.00 | 0.00 | 0.00 | 56 | 1015.6 |
| 20260905163023 | 96 | 143 | 0.0 | 6.1 | 0.00 | 0.00 | 0.00 | 56 | 1015.6 |
| 20260905162510 | 96 | 148 | 0.9 | 6.1 | 0.00 | 0.00 | 0.00 | 56 | 1015.5 |
| 20260905162013 | 96 | 159 | 0.0 | 5.2 | 0.00 | 0.00 | 0.00 | 57 | 1015.5 |
| 20260905161528 | 95 | 162 | 0.0 | 7.0 | 0.00 | 0.00 | 0.00 | 58 | 1015.5 |
| 20260905161011 | 94 | 185 | 0.9 | 7.0 | 0.00 | 0.00 | 0.00 | 59 | 1015.4 |
| 20260905160515 | 94 | 155 | 1.7 | 7.0 | 0.00 | 0.00 | 0.00 | 60 | 1015.5 |
| 20260905160046 | 93 | 113 | 0.0 | 7.0 | 0.00 | 0.00 | 0.00 | 61 | 1015.5 |
| 20260905155514 | 93 | 151 | 0.0 | 5.2 | 0.00 | 0.00 | 0.00 | 62 | 1015.5 |
| 20260905155002 | 92 | 84 | 0.0 | 3.5 | 0.00 | 0.00 | 0.00 | 60 | 1015.5 |
| 20260905154512 | 92 | 282 | 0.0 | 5.2 | 0.00 | 0.00 | 0.00 | 60 | 1015.5 |
| 20260905154006 | 92 | 281 | 0.9 | 6.1 | 0.00 | 0.00 | 0.00 | 60 | 1015.5 |
| 20260905153506 | 92 | 254 | 0.0 | 6.1 | 0.00 | 0.00 | 0.00 | 61 | 1015.5 |
| 20260905153022 | 92 | 252 | 0.0 | 4.3 | 0.00 | 0.00 | 0.00 | 62 | 1015.5 |
| 20260905152511 | 91 | 252 | 1.7 | 7.0 | 0.00 | 0.00 | 0.00 | 63 | 1015.5 |
| 20260905152016 | 90 | 252 | 1.7 | 7.0 | 0.00 | 0.00 | 0.00 | 63 | 1015.5 |
| 20260905151525 | 90 | 247 | 0.0 | 6.1 | 0.00 | 0.00 | 0.00 | 65 | 1015.5 |
| 20260905151011 | 89 | 245 | 0.0 | 6.1 | 0.00 | 0.00 | 0.00 | 65 | 1015.4 |
| 20260905150512 | 89 | 225 | 0.0 | 6.1 | 0.00 | 0.00 | 0.00 | 66 | 1015.4 |
| 20260905150028 | 89 | 221 | 0.9 | 6.1 | 0.00 | 0.00 | 0.00 | 66 | 1015.4 |
| 20260905145519 | 90 | 263 | 0.9 | 5.2 | 0.00 | 0.00 | 0.00 | 65 | 1015.3 |
| 20260905145014 | 90 | 253 | 0.9 | 4.3 | 0.00 | 0.00 | 0.00 | 65 | 1015.3 |
| 20260905144532 | 89 | 230 | 0.0 | 6.1 | 0.00 | 0.00 | 0.00 | 67 | 1015.3 |
| 20260905144018 | 88 | 236 | 0.0 | 6.1 | 0.00 | 0.00 | 0.00 | 67 | 1015.2 |
| 20260905143504 | 88 | 246 | 0.0 | 6.1 | 0.00 | 0.00 | 0.00 | 68 | 1015.2 |
| 20260905143015 | 88 | 245 | 0.9 | 6.1 | 0.00 | 0.00 | 0.00 | 67 | 1015.2 |
| 20260905142508 | 88 | 248 | 0.0 | 6.1 | 0.00 | 0.00 | 0.00 | 68 | 1015.2 |
| 20260905142010 | 89 | 242 | 1.7 | 6.1 | 0.00 | 0.00 | 0.00 | 66 | 1015.3 |
| 20260905141520 | 90 | 234 | 0.0 | 4.3 | 0.00 | 0.00 | 0.00 | 65 | 1015.3 |
| 20260905141011 | 90 | 233 | 1.7 | 4.3 | 0.00 | 0.00 | 0.00 | 64 | 1015.3 |
| 20260905140514 | 91 | 212 | 0.0 | 0.0 | 0.00 | 0.00 | 0.00 | 65 | 1015.3 |
| 20260905140028 | 90 | 211 | 0.0 | 0.0 | 0.00 | 0.00 | 0.00 | 65 | 1015.4 |
| 20260905135513 | 90 | 211 | 0.0 | 0.0 | 0.00 | 0.00 | 0.00 | 67 | 1015.3 |
| 20260905135012 | 89 | 211 | 0.0 | 0.0 | 0.00 | 0.00 | 0.00 | 67 | 1015.2 |
| 20260905134530 | 89 | 211 | 0.0 | 0.0 | 0.00 | 0.00 | 0.00 | 68 | 1015.1 |
| 20260905134014 | 88 | 211 | 0.0 | 0.0 | 0.00 | 0.00 | 0.00 | 69 | 1015.0 |
| 20260905133515 | 88 | 211 | 0.0 | 0.0 | 0.00 | 0.00 | 0.00 | 70 | 1014.9 |
| 20260905133030 | 87 | 211 | 0.0 | 0.0 | 0.00 | 0.00 | 0.00 | 72 | 1015.0 |
| 20260905132514 | 86 | 211 | 0.0 | 0.0 | 0.00 | 0.00 | 0.00 | 74 | 1014.9 |
| 20260905132008 | 84 | 211 | 0.0 | 0.0 | 0.00 | 0.00 | 0.00 | 76 | 1015.0 |
| 20260905131518 | 83 | 211 | 0.0 | 1.7 | 0.00 | 0.00 | 0.00 | 78 | 1015.0 |
| 20260905131008 | 82 | 211 | 0.0 | 1.7 | 0.00 | 0.00 | 0.00 | 79 | 1014.9 |
| 20260905130512 | 81 | 211 | 0.0 | 0.9 | 0.00 | 0.00 | 0.00 | 82 | 1014.9 |
| 20260905130025 | 80 | 211 | 0.0 | 0.0 | 0.00 | 0.00 | 0.00 | 83 | 1014.8 |
| 20260905125512 | 79 | 211 | 0.0 | 0.0 | 0.00 | 0.00 | 0.00 | 83 | 1014.8 |
| 20260905125012 | 79 | 211 | 0.0 | 0.9 | 0.00 | 0.00 | 0.00 | 82 | 1014.6 |
| 20260905124526 | 79 | 211 | 0.0 | 1.7 | 0.00 | 0.00 | 0.00 | 82 | 1014.5 |
| 20260905124014 | 79 | 211 | 0.0 | 1.7 | 0.00 | 0.00 | 0.00 | 82 | 1014.4 |
| 20260905123513 | 78 | 211 | 0.0 | 2.6 | 0.00 | 0.00 | 0.00 | 82 | 1014.4 |